Weather History for Fryeburg, ME

Change the Weather History Date:

Saturday, June 29, 2013

  Actual Average Record
Temperature  
Mean Temperature 72 °F -  
Max Temperature 82 °F 79 °F 91 °F (1997)
Min Temperature 62 °F 53 °F 44 °F (2001)
Cooling Degree Days 7    
Growing Degree Days 22 (Base 50)    
Moisture  
Dew Point 65 °F    
Average Humidity 89    
Maximum Humidity 100    
Minimum Humidity 58    
Precipitation  
Precipitation 0.36 in - - ()
Sea Level Pressure  
Sea Level Pressure 29.58 in    
Wind  
Wind Speed 1 mph (SSW)    
Max Wind Speed 12 mph    
Max Gust Speed 16 mph    
Visibility 9 miles    
Events Rain    
Averages and records for this station are not official NWS values.
T = Trace of Precipitation, MM = Missing Value Source: NWS Daily Summary

Daily Weather History Graph

Daily Weather History Graph

Search for Another Location

Airport:

Trip Planner

Search our weather history database for the weather conditions in past years. The results will help you decide how hot, cold, wet, or windy it might be!

Date:

Astronomy

Jun. 29, 2013 Rise Set
Actual Time 5:03 AM EDT 8:30 PM EDT
Civil Twilight 4:27 AM EDT 9:06 PM EDT
Nautical Twilight 3:40 AM EDT 9:54 PM EDT
Astronomical Twilight 2:40 AM EDT 10:54 PM EDT
Moon No Moon Rise 12:28 PM EDT (6/29)
Length of Visible Light 16h 39m
Length of Day
15h 26m
Waning Gibbous, 56% of the Moon is Illuminated
Jun 29
Waning Gibbous
Jun 30
Last Quarter
Jul 8
New
Jul 15
First Quarter
Jul 22
Full

Hourly Weather History & Observations

Time (EDT) Temp. Heat Index Dew Point Humidity Pressure Visibility Wind Dir Wind Speed Gust Speed Precip Events Conditions
12:54 AM 63.0 °F - 62.1 °F 97% 29.57 in 10.0 mi Calm Calm - N/A   Overcast
1:43 AM 62.6 °F - 62.6 °F 100% 29.56 in 10.0 mi Calm Calm - N/A   Overcast
1:54 AM 63.0 °F - 62.1 °F 97% 29.57 in 10.0 mi Calm Calm - N/A   Overcast
2:54 AM 63.0 °F - 62.1 °F 97% 29.55 in 10.0 mi North 3.5 mph - 0.02 in Rain Light Rain
3:19 AM 62.6 °F - 62.6 °F 100% 29.55 in 8.0 mi Calm Calm - 0.12 in Rain Light Rain
3:33 AM 62.6 °F - 62.6 °F 100% 29.55 in 10.0 mi Calm Calm - 0.13 in Rain Light Rain
3:54 AM 63.0 °F - 62.1 °F 97% 29.55 in 10.0 mi Calm Calm - 0.13 in Rain Light Rain
4:54 AM 62.1 °F - 62.1 °F 100% 29.57 in 9.0 mi Calm Calm - 0.00 in   Overcast
5:25 AM 62.6 °F - 62.6 °F 100% 29.56 in 5.0 mi Calm Calm - 0.10 in Rain Heavy Rain
5:50 AM 62.6 °F - 62.6 °F 100% 29.57 in 10.0 mi Calm Calm - 0.10 in   Overcast
5:54 AM 63.0 °F - 62.1 °F 97% 29.57 in 10.0 mi Calm Calm - 0.10 in   Overcast
6:03 AM 62.6 °F - 62.6 °F 100% 29.57 in 10.0 mi Calm Calm - N/A   Overcast
6:32 AM 62.6 °F - 62.6 °F 100% 29.58 in 10.0 mi Calm Calm - N/A   Overcast
6:49 AM 62.6 °F - 62.6 °F 100% 29.58 in 10.0 mi Calm Calm - N/A   Overcast
6:54 AM 63.0 °F - 62.1 °F 97% 29.58 in 8.0 mi Calm Calm - N/A   Overcast
7:54 AM 64.0 °F - 63.0 °F 96% 29.59 in 5.0 mi Calm Calm - N/A   Overcast
8:54 AM 64.0 °F - 64.0 °F 100% 29.60 in 4.0 mi Calm Calm - N/A   Overcast
9:54 AM 66.0 °F - 64.0 °F 93% 29.59 in 10.0 mi Calm Calm - N/A   Overcast
10:54 AM 66.9 °F - 64.9 °F 93% 29.60 in 10.0 mi Calm Calm - N/A   Overcast
11:54 AM 69.1 °F - 66.0 °F 90% 29.59 in 10.0 mi Calm Calm - N/A   Overcast
12:42 PM 71.6 °F - 66.2 °F 83% 29.58 in 10.0 mi Calm Calm - N/A   Overcast
12:54 PM 71.1 °F - 68.0 °F 90% 29.58 in 10.0 mi Calm Calm - N/A   Overcast
1:26 PM 75.2 °F - 69.8 °F 83% 29.57 in 10.0 mi ESE 3.5 mph - N/A   Overcast
1:40 PM 77.0 °F - 69.8 °F 78% 29.57 in 10.0 mi South 3.5 mph - N/A   Overcast
1:54 PM 77.0 °F - 70.0 °F 79% 29.56 in 10.0 mi SSW 4.6 mph - N/A   Mostly Cloudy
2:54 PM 82.0 °F 85.5 °F 69.1 °F 65% 29.55 in 10.0 mi Variable 5.8 mph 16.1 mph N/A   Partly Cloudy
3:54 PM 81.0 °F 83.3 °F 66.9 °F 62% 29.54 in 10.0 mi SSW 5.8 mph - N/A   Mostly Cloudy
4:54 PM 81.0 °F 83.0 °F 66.0 °F 60% 29.55 in 10.0 mi South 9.2 mph - 0.01 in   Mostly Cloudy
5:54 PM 81.0 °F 82.7 °F 64.9 °F 58% 29.56 in 10.0 mi SSW 8.1 mph - N/A   Clear
6:54 PM 79.0 °F - 64.9 °F 62% 29.57 in 10.0 mi Variable 3.5 mph - N/A   Clear
7:54 PM 75.9 °F - 64.9 °F 69% 29.60 in 10.0 mi Calm Calm - N/A   Mostly Cloudy
8:54 PM 72.0 °F - 66.0 °F 81% 29.64 in 10.0 mi WNW 11.5 mph - 0.00 in Rain Light Rain
9:54 PM 68.0 °F - 66.0 °F 93% 29.67 in 10.0 mi Calm Calm - 0.10 in   Overcast
10:54 PM 66.0 °F - 64.9 °F 96% 29.68 in 10.0 mi Calm Calm - 0.00 in   Mostly Cloudy
11:54 PM 64.9 °F - 64.0 °F 97% 29.69 in 9.0 mi Calm Calm - N/A   Mostly Cloudy